Date,TemperatureHighF,TemperatureAvgF,TemperatureLowF,DewpointHighF,DewpointAvgF,DewpointLowF,HumidityHigh,HumidityAvg,HumidityLow,PressureMaxIn,PressureMinIn,WindSpeedMaxMPH,WindSpeedAvgMPH,GustSpeedMaxMPH,PrecipitationSumIn
2013-10-1,87,64,46,34,30,19,60,32,9,29.90,29.75,0,0,3,0.00
2013-10-2,83,63,45,34,30,23,58,33,12,29.91,29.73,1,0,5,0.00
2013-10-3,81,63,47,37,33,27,61,35,15,29.81,29.58,1,0,6,0.00
2013-10-4,64,56,49,33,21,9,43,27,14,30.05,29.67,9,1,16,0.00
2013-10-5,63,51,40,22,19,15,48,29,16,30.23,30.05,7,0,13,0.00
2013-10-6,72,52,36,27,23,19,56,34,15,30.32,30.15,0,0,2,0.00
2013-10-7,78,56,39,29,26,22,56,34,13,30.24,29.99,1,0,6,0.00
2013-10-8,82,62,46,33,30,26,54,33,15,29.99,29.69,1,0,5,0.00
2013-10-9,78,61,45,36,32,27,58,36,16,29.80,29.66,1,0,6,0.00
2013-10-10,71,56,44,47,35,27,74,46,27,29.88,29.55,6,0,17,0.11
2013-10-11,64,49,34,33,30,28,77,51,28,30.05,29.88,4,0,13,0.00
2013-10-12,72,54,39,36,33,30,74,48,24,30.14,29.96,2,0,7,0.00
2013-10-13,80,62,46,44,38,33,65,43,21,30.05,29.77,2,0,11,0.00
2013-10-14,72,28,51,42,-42,-100,46,13,16,29.86,29.75,2,-567,11,0.00
2013-10-15,67,24,42,32,-46,-100,45,14,26,29.94,29.78,7,-588,15,0.00
2013-10-16,62,23,45,34,-45,-100,60,17,20,30.01,29.86,1,-581,3,0.00
2013-10-17,67,36,35,26,-18,-100,58,21,17,30.07,29.83,0,-325,2,0.00
2013-10-18,63,49,34,24,18,12,62,32,14,30.14,29.88,9,0,15,0.00
2013-10-19,66,48,33,27,23,18,71,43,18,30.21,30.01,1,0,4,0.00
2013-10-20,71,53,36,24,19,12,53,28,12,30.06,29.81,4,0,9,0.00
2013-10-21,65,52,42,30,27,18,56,39,22,30.12,29.91,3,0,7,0.00
2013-10-22,69,50,34,29,25,17,70,41,14,30.27,30.11,0,0,1,0.00
2013-10-23,72,52,37,32,26,20,55,38,19,30.21,30.03,1,0,5,0.00
2013-10-24,74,55,39,48,32,25,76,44,20,30.16,29.98,5,0,15,0.07
2013-10-25,66,54,46,48,43,37,83,67,44,30.15,29.98,4,0,12,0.10
2013-10-26,68,52,39,42,37,34,84,61,34,30.26,30.11,0,0,2,0.00
2013-10-27,70,53,38,38,35,32,82,54,26,30.19,29.85,0,0,3,0.00
2013-10-28,70,56,45,41,32,20,72,45,19,29.88,29.75,1,0,4,0.00
2013-10-29,69,57,46,29,26,22,45,30,20,29.92,29.70,1,0,6,0.00
2013-10-30,63,51,41,35,30,23,64,46,31,29.92,29.68,8,0,16,0.00
2013-10-31,56,45,33,29,25,22,70,48,28,30.12,29.92,9,0,14,0.00